Location: Stara Lesna
(49.1528°N, 20.2911°E)
Time: 14:07:19
(UTC+02:00)

Falcon 9 debris - Pass Details

Date: 21 September 2019
Orbit: 430 x 438 km, 53.0° (Epoch: 19 October)

Event Time Altitude Azimuth Distance (km) Brightness Sun altitude
Exits shadow 04:09:03 42° 350° (N) 641 4.0 -21.8°
Maximum altitude 04:09:12 42° 358° (N) 638 4.1 -21.8°
Drops below altitude 10° 04:12:32 10° 71° (ENE) 1,553 7.1 -21.3°
Sets 04:14:44 0° 79° (ENE) 2,423 8.2 -21.0°
